Weather History for K1V4 - November, 2011

Change the Weather History Date:

Tuesday, November 22, 2011

  Actual Average Record
Temperature  
Mean Temperature 26 °F 34 °F  
Max Temperature 37 °F 41 °F 68 °F (1953)
Min Temperature 15 °F 26 °F -4 °F (1916)
Degree Days  
Heating Degree Days 39 32  
Month to date heating degree days 542 601  
Since 1 July heating degree days 1209 1388  
Cooling Degree Days 0 0  
Month to date cooling degree days 0  
Year to date cooling degree days 433  
Moisture  
Dew Point 15 °F    
Average Humidity 64    
Maximum Humidity 92    
Minimum Humidity 35    
Precipitation  
Precipitation 0.00 in 0.11 in 1.26 in (1943)
Month to date precipitation 0.24 2.52  
Year to date precipitation 46.05 35.54  
Sea Level Pressure  
Sea Level Pressure 30.38 in    
Wind  
Wind Speed - (North)    
Max Wind Speed -    
Max Gust Speed -    
T = Trace of Precipitation, MM = Missing Value Source: NWS Daily Summary

Daily Weather History Graph

Daily Weather History Graph

Search for Another Location

Airport or City:

Trip Planner

Search our weather history database for the weather conditions in past years. The results will help you decide how hot, cold, wet, or windy it might be!

Date:

Astronomy

Nov. 22, 2011 Rise Set
Actual Time 6:52 AM EST 4:15 PM EST
Civil Twilight 6:20 AM EST 4:46 PM EST
Nautical Twilight 5:45 AM EST 5:22 PM EST
Astronomical Twilight 5:10 AM EST 5:57 PM EST
Moon 3:34 AM EST (11/22) 2:16 PM EST (11/22)
Length of Visible Light 10h 26m
Length of Day
9h 22m
Waning Crescent, 9% of the Moon is Illuminated
Nov 22
Waning Crescent
Nov 25
New
Dec 2
First Quarter
Dec 10
Full
Dec 17
Last Quarter

Hourly Weather History & Observations

Time (EST) Temp. Dew Point Humidity Pressure Visibility Wind Dir Wind Speed Gust Speed Precip Events Conditions
12:54 AM 19.0 °F 16.0 °F 88% 30.38 in - North - - N/A   Unknown
1:54 AM 18.0 °F 15.1 °F 88% 30.40 in - North - - N/A   Unknown
2:54 AM 17.1 °F 15.1 °F 92% 30.40 in - North - - N/A   Unknown
3:54 AM 17.1 °F 14.0 °F 88% 30.41 in - North - - N/A   Unknown
4:54 AM 16.0 °F 14.0 °F 92% 30.43 in - North - - N/A   Unknown
5:54 AM 16.0 °F 12.9 °F 88% 30.43 in - North - - N/A   Unknown
6:54 AM 16.0 °F 12.9 °F 88% 30.44 in - North - - N/A   Unknown
7:54 AM 17.1 °F 14.0 °F 88% 30.45 in - North - - N/A   Unknown
8:54 AM 19.9 °F 16.0 °F 85% 30.46 in - North - - N/A   Unknown
9:54 AM 25.0 °F 17.1 °F 72% 30.47 in - North - - N/A   Unknown
10:54 AM 30.9 °F 18.0 °F 59% 30.43 in - North - - N/A   Unknown
11:54 AM 34.0 °F 18.0 °F 52% 30.40 in - North - - N/A   Unknown
12:54 PM 36.0 °F 17.1 °F 46% 30.37 in - North - - N/A   Unknown
1:54 PM 37.0 °F 15.1 °F 41% 30.35 in - North - - N/A   Unknown
2:54 PM 37.0 °F 12.0 °F 36% 30.37 in - North - - N/A   Unknown
3:54 PM 35.1 °F 10.9 °F 37% 30.37 in - North - - N/A   Unknown
4:54 PM 33.1 °F 10.9 °F 40% 30.37 in - North - - N/A   Unknown
5:54 PM 30.9 °F 12.0 °F 46% 30.35 in - North - - N/A   Unknown
6:54 PM 30.9 °F 12.9 °F 47% 30.35 in - North - - N/A   Unknown
7:54 PM 30.0 °F 17.1 °F 59% 30.33 in - North - - N/A   Unknown
8:54 PM 30.0 °F 17.1 °F 59% 30.32 in - North - - N/A   Unknown
9:54 PM 30.0 °F 18.0 °F 61% 30.28 in - North - - N/A   Unknown
10:54 PM 30.0 °F 15.1 °F 54% 30.24 in - North - - N/A   Unknown
11:54 PM 30.0 °F 17.1 °F 59% 30.21 in - North - - N/A   Unknown